Ironwood, MI

4:36 PM CST on February 26, 2017 (GMT -0600)
Gogebic-Iron County

Weather History for KIWD - March, 2012

Change the Weather History Date:

Saturday, March 17, 2012

  Actual Average Record
Temperature  
Mean Temperature 68 °F -  
Max Temperature 77 °F 33 °F 77 °F (2012)
Min Temperature 59 °F 14 °F -2 °F (2001)
Cooling Degree Days 3    
Growing Degree Days 18 (Base 50)    
Moisture  
Dew Point 56 °F    
Average Humidity 69    
Maximum Humidity 88    
Minimum Humidity 47    
Precipitation  
Precipitation 0.00 in - - ()
Sea Level Pressure  
Sea Level Pressure 29.80 in    
Wind  
Wind Speed 12 mph (SSW)    
Max Wind Speed 21 mph    
Max Gust Speed 30 mph    
Visibility 10 miles    
Events      
Averages and records for this station are not official NWS values.
T = Trace of Precipitation, MM = Missing Value Source: NWS Daily Summary

Daily Weather History Graph

Daily Weather History Graph

Search for Another Location

Airport or City:

Trip Planner

Search our weather history database for the weather conditions in past years. The results will help you decide how hot, cold, wet, or windy it might be!

Date:

Astronomy

Mar. 17, 2012 Rise Set
Actual Time 7:08 AM CDT 7:09 PM CDT
Civil Twilight 6:38 AM CDT 7:39 PM CDT
Nautical Twilight 6:03 AM CDT 8:15 PM CDT
Astronomical Twilight 5:27 AM CDT 8:51 PM CDT
Moon 4:26 AM CDT (3/17) 2:18 PM CDT (3/17)
Length of Visible Light 13h 01m
Length of Day
12h 01m
Waning Crescent, 23% of the Moon is Illuminated
Mar 17
Waning Crescent
Mar 22
New
Mar 30
First Quarter
Apr 6
Full
Apr 13
Last Quarter

Hourly Weather History & Observations

Time (CDT) Temp. Dew Point Humidity Pressure Visibility Wind Dir Wind Speed Gust Speed Precip Events Conditions
12:15 AM 60.8 °F 50.0 °F 68% 29.84 in 10.0 mi SSE 11.5 mph 18.4 mph N/A   Clear
12:35 AM 60.8 °F 50.0 °F 68% 29.84 in 10.0 mi SSE 11.5 mph 17.3 mph N/A   Clear
12:55 AM 60.8 °F 51.8 °F 72% 29.83 in 10.0 mi SSE 11.5 mph 17.3 mph N/A   Clear
1:15 AM 60.8 °F 51.8 °F 72% 29.83 in 10.0 mi South 10.4 mph 17.3 mph N/A   Clear
1:35 AM 59.0 °F 51.8 °F 77% 29.83 in 10.0 mi South 10.4 mph 16.1 mph N/A   Clear
1:55 AM 60.8 °F 51.8 °F 72% 29.82 in 10.0 mi South 13.8 mph 18.4 mph N/A   Clear
2:15 AM 60.8 °F 53.6 °F 77% 29.82 in 10.0 mi South 16.1 mph 23.0 mph N/A   Clear
2:35 AM 60.8 °F 53.6 °F 77% 29.82 in 10.0 mi South 12.7 mph 21.9 mph N/A   Clear
2:55 AM 60.8 °F 53.6 °F 77% 29.81 in 10.0 mi South 13.8 mph 18.4 mph N/A   Clear
3:15 AM 60.8 °F 53.6 °F 77% 29.81 in 10.0 mi South 13.8 mph 19.6 mph N/A   Clear
3:35 AM 60.8 °F 53.6 °F 77% 29.81 in 10.0 mi South 12.7 mph 21.9 mph N/A   Clear
3:55 AM 60.8 °F 53.6 °F 77% 29.80 in 10.0 mi South 12.7 mph 18.4 mph N/A   Clear
4:15 AM 59.0 °F 53.6 °F 82% 29.81 in 10.0 mi South 12.7 mph 17.3 mph N/A   Clear
4:35 AM 59.0 °F 53.6 °F 82% 29.80 in 10.0 mi South 11.5 mph - N/A   Clear
4:55 AM 59.0 °F 53.6 °F 82% 29.81 in 10.0 mi South 10.4 mph - N/A   Clear
5:15 AM 59.0 °F 53.6 °F 82% 29.81 in 10.0 mi South 11.5 mph - N/A   Clear
5:35 AM 59.0 °F 53.6 °F 82% 29.81 in 10.0 mi South 10.4 mph 18.4 mph N/A   Clear
5:55 AM 59.0 °F 53.6 °F 82% 29.81 in 10.0 mi South 11.5 mph 16.1 mph N/A   Clear
6:15 AM 59.0 °F 53.6 °F 82% 29.81 in 10.0 mi South 13.8 mph 20.7 mph N/A   Clear
6:35 AM 59.0 °F 55.4 °F 88% 29.81 in 10.0 mi South 15.0 mph 20.7 mph N/A   Clear
6:55 AM 60.8 °F 55.4 °F 82% 29.82 in 10.0 mi South 11.5 mph 19.6 mph N/A   Clear
7:15 AM 60.8 °F 55.4 °F 82% 29.82 in 10.0 mi South 9.2 mph - N/A   Clear
7:35 AM 60.8 °F 55.4 °F 82% 29.82 in 10.0 mi SSW 11.5 mph 18.4 mph N/A   Clear
7:55 AM 60.8 °F 55.4 °F 82% 29.82 in 10.0 mi SW 8.1 mph 16.1 mph N/A   Clear
8:15 AM 60.8 °F 55.4 °F 82% 29.82 in 10.0 mi WSW 4.6 mph - N/A   Partly Cloudy
8:35 AM 60.8 °F 55.4 °F 82% 29.82 in 10.0 mi SW 3.5 mph - N/A   Scattered Clouds
8:55 AM 60.8 °F 55.4 °F 82% 29.82 in 10.0 mi SSW 6.9 mph - N/A   Partly Cloudy
9:15 AM 62.6 °F 55.4 °F 77% 29.82 in 10.0 mi SSW 6.9 mph - N/A   Clear
9:35 AM 62.6 °F 57.2 °F 82% 29.81 in 10.0 mi South 5.8 mph - N/A   Partly Cloudy
9:55 AM 64.4 °F 57.2 °F 77% 29.82 in 10.0 mi SSW 9.2 mph - N/A   Partly Cloudy
10:15 AM 66.2 °F 57.2 °F 73% 29.82 in 10.0 mi SSW 8.1 mph - N/A   Clear
10:35 AM 66.2 °F 57.2 °F 73% 29.82 in 10.0 mi SW 13.8 mph 19.6 mph N/A   Clear
10:55 AM 68.0 °F 59.0 °F 73% 29.82 in 10.0 mi SSW 11.5 mph - N/A   Clear
11:15 AM 69.8 °F 59.0 °F 68% 29.82 in 10.0 mi SSW 16.1 mph 21.9 mph N/A   Clear
11:35 AM 69.8 °F 59.0 °F 68% 29.82 in 10.0 mi South 15.0 mph 19.6 mph N/A   Scattered Clouds
11:55 AM 69.8 °F 59.0 °F 68% 29.81 in 10.0 mi SSW 15.0 mph 19.6 mph N/A   Scattered Clouds
12:15 PM 71.6 °F 60.8 °F 69% 29.81 in 10.0 mi SSW 12.7 mph 25.3 mph N/A   Clear
12:35 PM 73.4 °F 60.8 °F 65% 29.80 in 10.0 mi SW 16.1 mph 23.0 mph N/A   Clear
12:55 PM 73.4 °F 60.8 °F 65% 29.79 in 10.0 mi South 17.3 mph 24.2 mph N/A   Partly Cloudy
1:15 PM 73.4 °F 60.8 °F 65% 29.79 in 10.0 mi SW 15.0 mph 21.9 mph N/A   Partly Cloudy
1:35 PM 73.4 °F 60.8 °F 65% 29.78 in 10.0 mi South 20.7 mph 27.6 mph N/A   Scattered Clouds
1:55 PM 75.2 °F 59.0 °F 57% 29.78 in 10.0 mi SSW 17.3 mph 25.3 mph N/A   Scattered Clouds
2:15 PM 75.2 °F 59.0 °F 57% 29.78 in 10.0 mi SSW 13.8 mph 24.2 mph N/A   Scattered Clouds
2:35 PM 75.2 °F 59.0 °F 57% 29.78 in 10.0 mi SSW 13.8 mph 25.3 mph N/A   Partly Cloudy
2:55 PM 75.2 °F 59.0 °F 57% 29.78 in 10.0 mi SSW 19.6 mph 29.9 mph N/A   Scattered Clouds
3:15 PM 75.2 °F 57.2 °F 53% 29.78 in 10.0 mi SSW 18.4 mph 26.5 mph N/A   Mostly Cloudy
3:35 PM 75.2 °F 57.2 °F 53% 29.78 in 10.0 mi SSW 15.0 mph 24.2 mph N/A   Mostly Cloudy
3:55 PM 75.2 °F 57.2 °F 53% 29.78 in 10.0 mi SSW 11.5 mph 20.7 mph N/A   Partly Cloudy
4:15 PM 75.2 °F 57.2 °F 53% 29.77 in 10.0 mi SSW 17.3 mph 25.3 mph N/A   Partly Cloudy
4:35 PM 77.0 °F 57.2 °F 50% 29.77 in 10.0 mi SSW 15.0 mph 21.9 mph N/A   Partly Cloudy
4:55 PM 77.0 °F 57.2 °F 50% 29.76 in 10.0 mi SSW 15.0 mph 23.0 mph N/A   Scattered Clouds
5:15 PM 77.0 °F 55.4 °F 47% 29.76 in 10.0 mi SW 16.1 mph - N/A   Partly Cloudy
5:35 PM 77.0 °F 55.4 °F 47% 29.77 in 10.0 mi SSW 17.3 mph 20.7 mph N/A   Clear
5:55 PM 75.2 °F 55.4 °F 50% 29.76 in 10.0 mi SSW 13.8 mph 27.6 mph N/A   Clear
6:15 PM 75.2 °F 53.6 °F 47% 29.77 in 10.0 mi SSW 13.8 mph 21.9 mph N/A   Clear
6:35 PM 75.2 °F 53.6 °F 47% 29.77 in 10.0 mi SSW 13.8 mph 18.4 mph N/A   Clear
6:55 PM 73.4 °F 53.6 °F 50% 29.77 in 10.0 mi South 9.2 mph 16.1 mph N/A   Clear
7:15 PM 73.4 °F 53.6 °F 50% 29.78 in 10.0 mi SSW 9.2 mph 16.1 mph N/A   Clear
7:35 PM 73.4 °F 53.6 °F 50% 29.78 in 10.0 mi SSW 5.8 mph - N/A   Clear
7:55 PM 71.6 °F 53.6 °F 53% 29.79 in 10.0 mi SSE 4.6 mph - N/A   Clear
8:15 PM 71.6 °F 53.6 °F 53% 29.79 in 10.0 mi SSE 5.8 mph - N/A   Clear
8:35 PM 69.8 °F 53.6 °F 56% 29.79 in 10.0 mi SSE 8.1 mph - N/A   Clear
8:55 PM 69.8 °F 53.6 °F 56% 29.79 in 10.0 mi SSE 6.9 mph - N/A   Clear
9:15 PM 69.8 °F 53.6 °F 56% 29.80 in 10.0 mi SSE 8.1 mph - N/A   Clear
9:35 PM 69.8 °F 53.6 °F 56% 29.80 in 10.0 mi SSE 9.2 mph - N/A   Clear
9:55 PM 69.8 °F 53.6 °F 56% 29.81 in 10.0 mi SSE 9.2 mph - N/A   Clear
10:15 PM 69.8 °F 51.8 °F 53% 29.81 in 10.0 mi SSE 10.4 mph - N/A   Clear
10:35 PM 69.8 °F 53.6 °F 56% 29.81 in 10.0 mi SSE 10.4 mph - N/A   Clear
10:55 PM 68.0 °F 53.6 °F 60% 29.81 in 10.0 mi SSE 5.8 mph - N/A   Clear
11:15 PM 66.2 °F 53.6 °F 64% 29.82 in 10.0 mi South 9.2 mph - N/A   Clear
11:35 PM 66.2 °F 51.8 °F 60% 29.82 in 10.0 mi South 6.9 mph - N/A   Clear
11:55 PM 66.2 °F 51.8 °F 60% 29.82 in 10.0 mi South 9.2 mph - N/A   Clear